Tiempo cada hora Barnowo

Hoy, 25 Junio, Viernes

Tiempo Temperatura Precipitaciones Viento Presión Humedad
00:00 +15°C° 0.1 mm 1 mps 751 mmHg 97%
01:00 +15°C° 0.1 mm 2 mps 751 mmHg 98%
02:00 +15°C° 0 mm 2 mps 751 mmHg 97%
03:00 +15°C° 0 mm 2 mps 751 mmHg 97%
04:00 +14°C° 0 mm 3 mps 751 mmHg 96%
05:00 +16°C° 0 mm 3 mps 751 mmHg 91%
06:00 +17°C° 0 mm 3 mps 751 mmHg 86%
07:00 +18°C° 0 mm 3 mps 751 mmHg 81%
08:00 +19°C° 0 mm 3 mps 751 mmHg 74%
09:00 +20°C° 0 mm 3 mps 752 mmHg 67%
10:00 +21°C° 0 mm 3 mps 752 mmHg 61%
11:00 +21°C° 0.3 mm 3 mps 752 mmHg 62%
12:00 +21°C° 0.3 mm 3 mps 752 mmHg 64%
13:00 +21°C° 0.3 mm 2 mps 752 mmHg 66%
14:00 +20°C° 0.3 mm 2 mps 751 mmHg 70%
15:00 +20°C° 0.3 mm 2 mps 751 mmHg 74%
16:00 +19°C° 0.3 mm 2 mps 751 mmHg 79%
17:00 +19°C° 0.1 mm 2 mps 751 mmHg 80%
18:00 +18°C° 0.1 mm 2 mps 751 mmHg 81%
19:00 +18°C° 0.1 mm 2 mps 751 mmHg 82%
20:00 +17°C° 0 mm 2 mps 752 mmHg 87%
21:00 +16°C° 0 mm 2 mps 752 mmHg 91%
22:00 +14°C° 0 mm 2 mps 752 mmHg 95%
23:00 +14°C° 0 mm 2 mps 752 mmHg 96%

Mañana, 26 Junio, Sábado

Tiempo Temperatura Precipitaciones Viento Presión Humedad
00:00 +14°C° 0 mm 2 mps 752 mmHg 96%
01:00 +13°C° 0 mm 2 mps 752 mmHg 96%
02:00 +13°C° 0 mm 2 mps 752 mmHg 97%
03:00 +13°C° 0 mm 2 mps 752 mmHg 97%
04:00 +13°C° 0 mm 2 mps 752 mmHg 97%
05:00 +14°C° 0 mm 3 mps 753 mmHg 90%
06:00 +16°C° 0 mm 3 mps 753 mmHg 83%
07:00 +18°C° 0 mm 3 mps 753 mmHg 76%
08:00 +19°C° 0 mm 4 mps 753 mmHg 68%
09:00 +20°C° 0 mm 4 mps 753 mmHg 60%
10:00 +22°C° 0 mm 4 mps 753 mmHg 52%
11:00 +22°C° 0 mm 4 mps 753 mmHg 50%
12:00 +22°C° 0 mm 4 mps 753 mmHg 49%
13:00 +23°C° 0 mm 4 mps 753 mmHg 48%
14:00 +23°C° 0 mm 4 mps 753 mmHg 48%
15:00 +22°C° 0 mm 4 mps 753 mmHg 48%
16:00 +22°C° 0 mm 4 mps 753 mmHg 49%
17:00 +21°C° 0 mm 4 mps 753 mmHg 54%
18:00 +20°C° 0 mm 3 mps 753 mmHg 60%
19:00 +19°C° 0 mm 3 mps 753 mmHg 66%
20:00 +17°C° 0 mm 2 mps 753 mmHg 74%
21:00 +15°C° 0 mm 2 mps 753 mmHg 83%
22:00 +14°C° 0 mm 1 mps 753 mmHg 92%
23:00 +13°C° 0 mm 1 mps 753 mmHg 92%

Pasado mañana, 27 Junio, Domingo

Tiempo Temperatura Precipitaciones Viento Presión Humedad
00:00 +13°C° 0 mm 1 mps 753 mmHg 93%
01:00 +13°C° 0 mm 1 mps 753 mmHg 93%
02:00 +12°C° 0 mm 1 mps 753 mmHg 93%
03:00 +12°C° 0 mm 1 mps 753 mmHg 92%
04:00 +12°C° 0 mm 1 mps 753 mmHg 92%
05:00 +14°C° 0 mm 2 mps 753 mmHg 83%
06:00 +16°C° 0 mm 2 mps 753 mmHg 74%
07:00 +18°C° 0 mm 2 mps 753 mmHg 66%
08:00 +20°C° 0 mm 2 mps 753 mmHg 60%
09:00 +21°C° 0 mm 3 mps 753 mmHg 55%
10:00 +24°C° 0 mm 3 mps 753 mmHg 49%
11:00 +24°C° 0 mm 3 mps 753 mmHg 46%
12:00 +25°C° 0 mm 3 mps 753 mmHg 44%
13:00 +26°C° 0 mm 3 mps 753 mmHg 41%
14:00 +26°C° 0 mm 3 mps 753 mmHg 43%
15:00 +25°C° 0 mm 3 mps 753 mmHg 45%
16:00 +25°C° 0 mm 3 mps 753 mmHg 48%
17:00 +24°C° 0 mm 3 mps 753 mmHg 54%
18:00 +22°C° 0 mm 3 mps 753 mmHg 59%
19:00 +21°C° 0 mm 2 mps 753 mmHg 65%
20:00 +19°C° 0 mm 2 mps 753 mmHg 73%
21:00 +18°C° 0 mm 1 mps 753 mmHg 80%
22:00 +15°C° 0 mm 1 mps 753 mmHg 87%
23:00 +15°C° 0 mm 1 mps 753 mmHg 87%

28 Junio, Lunes

Tiempo Temperatura Precipitaciones Viento Presión Humedad
00:00 +15°C° 0 mm 1 mps 753 mmHg 88%
01:00 +14°C° 0 mm 1 mps 753 mmHg 88%
02:00 +14°C° 0 mm 1 mps 753 mmHg 87%
03:00 +14°C° 0 mm 1 mps 753 mmHg 86%
04:00 +14°C° 0 mm 1 mps 753 mmHg 85%
05:00 +16°C° 0 mm 1 mps 753 mmHg 77%
06:00 +20°C° 0 mm 1 mps 753 mmHg 69%
07:00 +22°C° 0 mm 1 mps 753 mmHg 61%
08:00 +23°C° 0 mm 2 mps 753 mmHg 56%
09:00 +25°C° 0 mm 2 mps 753 mmHg 50%
10:00 +26°C° 0 mm 2 mps 753 mmHg 45%
11:00 +27°C° 0 mm 2 mps 753 mmHg 42%
12:00 +28°C° 0 mm 2 mps 753 mmHg 40%
13:00 +28°C° 0 mm 2 mps 752 mmHg 38%
14:00 +28°C° 0 mm 2 mps 752 mmHg 38%
15:00 +28°C° 0 mm 3 mps 752 mmHg 38%
16:00 +28°C° 0 mm 3 mps 752 mmHg 38%
17:00 +27°C° 0 mm 3 mps 752 mmHg 46%
18:00 +25°C° 0 mm 2 mps 752 mmHg 53%
19:00 +24°C° 0 mm 2 mps 752 mmHg 60%
20:00 +21°C° 0 mm 2 mps 752 mmHg 66%
21:00 +20°C° 0 mm 2 mps 751 mmHg 71%
22:00 +18°C° 0 mm 2 mps 751 mmHg 77%
23:00 +18°C° 0 mm 2 mps 751 mmHg 79%

29 Junio, Martes

Tiempo Temperatura Precipitaciones Viento Presión Humedad
00:00 +17°C° 0 mm 2 mps 751 mmHg 81%
01:00 +17°C° 0 mm 2 mps 751 mmHg 83%
02:00 +17°C° 0 mm 2 mps 751 mmHg 83%
03:00 +17°C° 0 mm 2 mps 750 mmHg 83%
04:00 +18°C° 0 mm 1 mps 750 mmHg 83%
05:00 +19°C° 0 mm 2 mps 750 mmHg 74%
06:00 +23°C° 0 mm 2 mps 750 mmHg 65%
07:00 +25°C° 0 mm 2 mps 750 mmHg 57%
08:00 +26°C° 0 mm 3 mps 750 mmHg 52%
09:00 +28°C° 0 mm 3 mps 750 mmHg 47%
10:00 +29°C° 0 mm 3 mps 749 mmHg 42%
11:00 +29°C° 0 mm 3 mps 749 mmHg 43%
12:00 +29°C° 0 mm 3 mps 749 mmHg 45%
13:00 +29°C° 0 mm 3 mps 748 mmHg 46%
14:00 +28°C° 0.2 mm 3 mps 748 mmHg 51%
15:00 +27°C° 0.2 mm 2 mps 748 mmHg 56%
16:00 +26°C° 0.2 mm 2 mps 748 mmHg 61%
17:00 +26°C° 0.1 mm 2 mps 748 mmHg 64%
18:00 +25°C° 0.1 mm 2 mps 748 mmHg 67%
19:00 +25°C° 0.1 mm 1 mps 748 mmHg 70%
20:00 +23°C° 0 mm 2 mps 748 mmHg 73%
21:00 +21°C° 0 mm 2 mps 748 mmHg 76%
22:00 +19°C° 0 mm 2 mps 748 mmHg 79%
23:00 +19°C° 0.4 mm 2 mps 748 mmHg 82%

30 Junio, Miércoles

Tiempo Temperatura Precipitaciones Viento Presión Humedad
00:00 +18°C° 0.4 mm 2 mps 748 mmHg 85%
01:00 +17°C° 0.4 mm 2 mps 748 mmHg 87%
02:00 +17°C° 0 mm 2 mps 748 mmHg 87%
03:00 +18°C° 0 mm 1 mps 748 mmHg 87%
04:00 +16°C° 0 mm 1 mps 747 mmHg 87%
05:00 +17°C° 0 mm 2 mps 748 mmHg 80%
06:00 +19°C° 0 mm 2 mps 748 mmHg 74%
07:00 +20°C° 0 mm 3 mps 748 mmHg 67%
08:00 +21°C° 0 mm 3 mps 748 mmHg 61%
09:00 +24°C° 0 mm 3 mps 748 mmHg 55%
10:00 +25°C° 0 mm 4 mps 748 mmHg 50%
11:00 +25°C° 0 mm 4 mps 748 mmHg 49%
12:00 +26°C° 0 mm 4 mps 748 mmHg 49%
13:00 +26°C° 0 mm 5 mps 748 mmHg 48%
14:00 +26°C° 0 mm 5 mps 748 mmHg 50%
15:00 +25°C° 0 mm 5 mps 748 mmHg 52%
16:00 +23°C° 0 mm 5 mps 748 mmHg 54%
17:00 +22°C° 0 mm 4 mps 749 mmHg 56%
18:00 +21°C° 0 mm 4 mps 749 mmHg 57%
19:00 +20°C° 0 mm 3 mps 749 mmHg 59%
20:00 +18°C° 0 mm 3 mps 749 mmHg 69%
21:00 +16°C° 0 mm 2 mps 750 mmHg 79%
22:00 +14°C° 0 mm 2 mps 750 mmHg 90%
23:00 +14°C° 0 mm 1 mps 750 mmHg 91%
Mostrar más

Necesitamos Su Consentimiento

Meteoprog y nuestros Proveedores de Servicios pueden almacenar y acceder a sus datos personales como cookies, identificadores de dispositivo u otras tecnologías similares de su dispositivo y procesar dichos datos para personalizar contenido y anuncios, además de ofrecer funciones de redes sociales y analizar el tráfico.

  • Almacenar y/o acceder a información en su dispositivo

    Se puede almacenar o acceder a cookies, identificadores de dispositivo u otra información de su dispositivo para los fines anteriormente indicados.

  • Anuncios y contenido personalizados, medición de anuncios y contenido, percepciones del público, y desarrollo de productos

    Los anuncios y el contenido pueden personalizarse en base a su perfil. Se pueden añadir más datos para personalizar mejor los anuncios y contenidos. Se puede medir el rendimiento de los anuncios y contenidos. Se puede obtener la percepción sobre el público que ha visto los anuncios y contenidos. Dichos datos pueden usarse para desarrollar o mejorar la experiencia del usuario, sistemas y software.

Al hacer clic en ‘Estoy De Acuerdo’ usted permitirá el uso de las cookies, identificadores de dispositivo, balizas web u otras tecnologías similares indicadas. Su configuración puede cambiarse desde el navegador de su dispositivo.

Para ciertos fines, los intereses legítimos pueden ser considerados por encima del consentimiento. Puede leer más sobre ello en nuestra Política de Privacidad y Cookies.